Theta_e
353 351 350 351 351 353 354 354 354 352 353 346 344 349 349 347 349 352 350 347 354 353 353 352 351 351 349 350 347 346 345 349 351 346 342 348 349 350 352 347 352 352 337
352 350 349 350 353 354 354 354 352 348 348 347 351 350 352 347 350 352 351 354 350 352 351 349 351 352 349 349 349 353 352 345 346 342 341 347 346 347 348 350 350 351 348
351 352 350 350 353 354 353 353 351 346 349 352 353 350 352 352 352 353 350 353 353 352 349 348 346 345 347 350 351 352 351 352 351 346 348 350 350 344 344 349 349 346 345
349 350 350 349 352 353 353 352 350 348 350 352 352 349 349 351 353 353 351 348 347 346 346 343 341 339 338 340 343 344 347 345 343 341 352 352 351 342 344 344 346 349 348
348 349 353 351 352 353 352 349 348 348 348 352 353 352 351 350 348 346 342 339 338 338 339 340 344 348 348 342 338 339 341 345 345 348 352 351 350 344 340 345 346 346 345
349 352 353 352 353 353 352 349 351 351 351 350 349 347 347 344 342 343 344 345 345 344 347 350 352 352 352 351 351 345 337 337 341 349 352 351 350 348 334 346 352 351 347
348 353 352 351 352 353 351 352 352 353 353 352 349 348 345 340 341 341 343 347 352 352 352 351 353 354 354 354 354 353 348 341 345 346 348 350 350 349 340 344 352 349 348
347 347 349 349 352 352 353 353 353 352 352 352 351 346 343 344 343 343 343 345 346 347 349 349 349 350 350 350 350 351 351 346 351 348 347 350 351 347 343 341 342 343 343
347 344 345 346 350 352 352 352 351 352 350 348 345 341 340 340 344 347 348 350 351 350 349 351 351 350 349 349 348 349 349 347 353 352 348 350 351 347 345 346 345 342 342
346 348 345 345 346 345 346 346 346 341 340 340 339 338 339 346 352 352 354 355 351 352 352 351 350 350 348 347 347 347 347 346 354 352 351 352 349 348 344 343 346 346 343
346 347 348 348 346 346 347 347 339 335 335 335 341 346 346 354 355 356 355 349 351 350 349 349 349 350 349 348 350 350 349 355 355 353 351 353 350 347 344 343 345 346 346
348 348 348 348 348 348 346 353 346 350 350 352 350 356 354 353 356 352 354 354 355 353 354 351 351 350 351 358 356 356 356 355 353 353 353 352 347 344 344 345 342 345 346
347 347 349 349 348 347 345 345 347 346 346 347 352 357 354 354 356 353 354 355 358 357 359 357 357 357 357 358 356 357 357 352 351 351 354 348 347 344 346 345 347 345 346
347 347 348 349 349 347 346 346 347 346 346 347 348 355 355 355 354 354 355 355 356 356 355 357 357 356 356 356 356 357 356 353 350 348 353 348 347 348 348 347 347 346 346
348 349 348 349 351 350 350 349 347 346 346 346 350 354 353 354 353 353 356 356 356 355 354 355 356 356 355 354 355 356 357 356 352 349 356 344 341 347 349 347 347 347 347
348 349 350 351 352 352 352 353 349 347 347 348 349 352 356 355 355 356 355 356 355 355 353 354 357 357 355 354 354 354 355 355 350 354 354 348 341 343 346 346 347 348 349
346 347 349 351 352 355 354 352 350 349 347 349 350 353 355 356 357 360 354 355 355 354 357 356 359 358 356 353 354 355 354 352 354 354 357 356 348 343 344 347 347 345 344
344 345 346 347 348 352 352 350 348 348 349 349 349 351 356 358 360 359 355 355 357 354 354 354 356 354 355 354 351 356 356 354 355 355 355 353 357 355 346 345 345 345 344
344 346 346 346 345 348 350 349 350 349 351 349 349 350 357 357 358 358 355 355 358 355 353 355 355 355 354 355 351 352 352 357 354 352 354 351 352 353 357 348 348 346 344
344 347 348 346 344 346 349 350 349 350 351 350 350 350 356 357 358 358 353 354 357 356 355 358 360 356 354 355 354 354 353 354 355 353 354 353 355 355 356 355 353 351 349
346 348 349 349 348 348 351 352 351 350 350 350 349 351 354 355 358 357 354 357 356 355 359 359 357 358 349 354 356 355 353 354 353 355 356 353 357 354 355 356 357 354 351
348 349 351 351 352 352 350 350 350 349 348 348 348 348 352 354 357 358 358 354 354 357 359 356 359 354 348 355 358 352 354 354 354 355 354 352 355 354 354 356 356 357 355
348 350 352 353 354 355 352 351 351 350 350 348 347 349 350 354 358 359 360 357 359 355 357 358 356 355 357 355 356 358 361 356 351 353 354 352 356 353 355 355 357 357 357
347 349 351 354 355 356 355 352 352 352 350 348 348 346 348 354 358 357 360 362 361 354 357 354 356 357 353 352 354 353 356 357 364 359 353 354 354 355 356 355 357 358 356
346 347 349 353 355 356 357 355 353 353 349 348 348 346 349 355 357 358 358 362 361 356 354 360 361 361 357 355 353 354 358 355 359 356 356 356 354 353 354 357 352 355 358
345 345 346 352 355 357 359 358 357 355 353 349 348 347 353 350 354 357 357 362 363 362 361 361 364 359 357 357 355 357 353 354 354 358 354 355 354 352 351 352 353 353 354
Wind_Speed
19 21 20 19 18 17 17 17 16 14 12 12 12 11 10 8 9 10 9 9 9 7 8 8 6 7 7 8 7 5 3 4 4 3 4 6 7 6 4 7 6 6 7
23 22 21 20 18 17 16 15 14 13 11 11 10 10 10 11 11 10 10 9 7 7 7 6 7 7 6 6 6 5 5 5 4 3 7 8 11 7 5 3 4 8 8
24 23 21 21 17 16 15 14 13 13 11 10 10 10 11 11 11 11 10 9 8 7 6 5 5 5 4 5 5 4 4 4 3 4 7 9 11 9 6 6 5 5 8
24 22 20 19 17 16 15 14 13 12 11 11 11 11 11 11 9 8 7 6 6 5 4 3 2 2 2 3 3 3 3 3 3 3 8 12 9 8 6 6 6 6 7
23 23 21 19 17 16 15 14 12 12 11 10 10 10 9 8 7 5 3 2 2 1 1 1 1 1 1 2 2 3 3 3 4 4 6 1 5 7 6 7 6 6 8
24 25 22 19 17 16 15 13 11 11 10 9 9 8 6 5 3 2 1 1 1 2 2 3 3 3 4 4 5 5 5 6 7 10 5 2 2 5 4 7 9 9 9
24 21 21 20 16 15 15 13 11 10 8 8 7 5 3 2 1 1 2 2 2 3 4 4 5 5 6 6 6 7 6 7 8 12 8 5 9 3 5 9 10 11 9
23 20 20 20 17 15 13 12 10 9 7 7 5 3 2 1 2 2 2 2 2 2 3 4 5 5 5 6 7 7 7 7 10 8 6 6 6 5 7 9 10 10 10
20 22 19 17 16 14 12 11 10 9 7 6 4 3 3 2 1 2 1 1 2 3 4 4 5 6 5 6 6 7 7 7 9 8 7 10 15 6 7 8 9 10 11
17 22 20 18 15 13 11 11 10 8 7 6 4 3 3 4 1 1 1 3 5 3 3 4 5 4 5 5 6 7 7 7 8 8 7 4 5 6 8 9 9 10 13
17 16 17 18 15 13 13 11 8 7 5 4 3 2 5 3 3 3 2 4 3 3 3 4 6 6 7 8 8 7 6 9 11 8 8 6 4 8 10 11 12 11 15
19 18 17 15 15 14 11 10 9 9 8 8 5 5 5 3 1 2 3 3 1 4 2 2 4 7 9 8 11 9 10 7 7 6 9 4 7 5 9 9 8 10 13
19 18 16 15 14 14 12 10 9 8 7 7 7 7 4 2 3 5 2 4 5 6 6 6 6 5 5 7 8 9 9 2 3 5 6 3 5 7 5 7 7 9 9
20 18 17 16 14 13 11 10 7 7 6 6 8 6 5 7 4 4 5 5 4 8 2 7 3 3 3 4 2 4 7 4 6 3 7 1 1 4 5 6 5 6 8
20 19 17 17 15 12 9 9 8 7 7 8 6 8 6 5 3 6 4 6 5 5 3 4 3 4 6 5 4 6 7 8 5 2 11 6 4 4 4 4 4 4 6
20 20 19 18 17 15 13 10 8 9 8 8 8 8 7 6 5 5 7 7 6 7 2 4 5 5 5 4 6 7 4 6 5 4 2 8 6 5 6 5 4 3 5
20 19 20 19 18 17 15 13 12 10 10 10 9 7 7 7 8 7 7 7 8 4 3 6 8 4 8 6 6 6 11 4 2 5 11 9 8 7 6 5 3 3 2
19 20 19 19 18 17 16 14 14 13 12 11 11 10 8 7 7 6 7 7 7 4 6 7 11 3 10 7 7 8 16 5 7 6 10 8 12 11 9 6 3 2 1
19 20 19 18 18 18 16 15 14 13 12 12 11 10 11 8 7 6 8 8 5 9 7 9 8 1 6 8 6 9 8 12 11 14 6 3 2 5 10 7 2 2 2
20 19 19 19 18 18 16 15 14 14 13 13 12 11 10 7 6 6 9 6 5 13 4 4 7 7 8 11 17 12 13 13 10 10 7 9 9 4 10 7 4 6 3
22 21 20 19 19 19 18 17 15 15 14 14 13 11 6 8 10 7 11 11 8 10 4 4 3 9 10 10 18 14 12 8 8 12 15 10 13 7 8 4 7 11 8
25 24 23 21 20 21 20 18 17 15 14 14 14 12 12 12 11 8 9 8 6 4 6 3 5 10 10 7 19 6 3 12 15 17 7 4 8 7 8 10 7 5 7
29 28 26 25 24 23 21 19 16 14 13 11 13 12 14 13 12 11 9 11 4 7 6 6 4 7 15 2 8 10 5 2 12 12 7 6 5 6 8 6 6 7 7
31 29 28 27 26 26 24 21 20 16 16 16 14 14 15 16 15 12 12 12 10 13 4 3 5 5 6 11 2 8 9 7 7 3 3 9 6 5 6 7 9 8 8
31 31 30 28 27 26 27 26 20 21 17 15 13 11 14 15 12 12 12 12 12 11 14 7 6 7 6 7 11 5 8 10 1 5 2 12 9 8 8 9 8 8 12
32 31 31 30 29 29 26 28 25 20 21 16 15 13 16 16 18 17 13 12 12 13 13 4 9 10 10 7 9 6 9 9 6 9 5 5 8 6 7 9 8 9 10
Wind_Direction
137 146 141 137 132 127 116 112 114 114 110 106 99 101 101 97 106 104 106 103 96 95 92 92 81 77 67 69 73 75 79 99 85 109 140 126 123 122 122 117 108 128 126
141 146 142 139 133 126 119 118 116 113 108 104 103 94 93 95 101 102 108 103 95 95 93 100 98 89 90 90 84 85 90 108 123 151 171 149 132 133 131 122 117 149 136
139 148 147 144 133 128 128 124 121 113 115 112 106 106 104 102 105 107 108 109 107 110 111 101 97 105 112 101 101 107 116 121 146 190 143 167 141 126 139 159 132 154 153
137 146 148 147 140 137 134 127 119 118 117 110 110 109 107 108 108 110 113 118 120 122 119 121 111 110 117 130 148 146 149 161 181 209 282 178 128 123 148 169 168 157 168
144 148 148 150 145 140 135 128 135 130 128 118 113 111 111 113 113 113 114 121 141 159 179 205 206 210 218 228 217 212 211 218 222 246 305 319 78 148 166 178 173 162 179
150 139 149 151 144 143 138 142 129 124 121 121 118 119 120 118 122 130 154 219 235 235 235 233 226 223 230 228 232 238 239 235 241 250 229 276 217 165 169 174 177 187 190
146 135 149 151 147 147 145 144 140 134 134 132 129 128 132 126 151 183 197 212 232 251 246 246 234 223 229 231 232 233 239 245 245 268 227 215 209 213 191 176 188 197 196
140 146 153 155 153 153 151 150 146 141 143 143 146 159 163 206 221 216 208 214 222 257 271 275 264 243 229 230 231 230 234 238 251 242 217 231 192 217 199 196 204 205 203
146 149 158 163 164 163 163 161 158 157 161 160 175 200 210 198 196 193 181 255 285 275 267 271 266 252 241 234 231 225 229 242 255 262 235 212 200 213 209 209 215 220 216
160 149 160 165 171 176 183 180 176 178 182 183 199 228 203 174 128 165 25 316 311 299 270 259 256 241 233 225 222 219 224 241 236 249 256 216 208 244 232 225 230 233 229
169 163 166 164 174 180 181 191 194 192 198 198 196 159 213 222 206 256 243 282 297 288 273 258 246 239 241 235 224 222 222 230 231 231 205 231 274 262 244 232 229 242 235
176 171 173 177 175 178 185 163 193 199 209 197 194 174 246 172 153 276 243 315 303 330 242 238 255 245 243 240 235 218 208 211 200 204 178 236 269 255 234 233 242 230 233
179 181 183 188 181 182 192 184 196 198 200 206 202 202 243 245 206 283 256 291 284 290 260 224 230 259 226 221 227 206 214 183 220 160 139 305 261 237 231 228 244 222 232
181 188 185 183 185 196 187 196 197 206 194 211 184 199 208 225 188 269 315 307 299 288 324 274 278 357 275 260 262 253 223 227 198 161 150 76 181 227 232 225 225 230 224
181 185 189 177 184 199 202 200 216 208 199 200 195 196 216 251 249 264 298 291 303 302 233 277 289 281 296 275 213 225 225 223 244 223 122 117 101 124 156 180 198 209 226
184 188 191 185 190 194 199 208 210 210 202 210 207 195 206 241 267 277 257 261 273 263 329 302 316 316 302 234 186 224 248 239 213 198 116 143 127 125 131 138 167 206 230
185 194 194 196 194 197 202 203 206 211 203 203 207 206 220 242 247 270 258 253 245 240 250 253 261 252 275 228 228 223 201 233 82 186 163 151 167 150 137 147 169 183 205
195 195 198 196 196 198 202 206 207 206 210 210 214 211 201 230 246 242 238 257 319 233 239 252 249 225 292 240 254 220 252 198 140 185 227 188 172 170 158 161 172 198 219
199 188 199 197 197 196 201 203 208 206 216 221 224 223 184 234 230 247 249 194 234 254 230 260 252 339 267 282 265 213 225 153 206 184 153 196 209 162 166 164 191 234 308
190 190 196 196 198 195 195 203 208 214 218 222 225 231 179 219 235 236 251 218 243 253 224 280 347 339 310 285 268 171 200 201 180 179 160 197 164 195 183 169 217 199 265
189 191 191 195 193 193 197 199 209 213 218 225 227 224 222 228 245 211 260 182 207 257 147 326 299 251 280 250 269 328 183 171 203 188 193 199 146 195 188 187 235 218 208
191 191 194 196 194 199 201 208 211 215 221 223 225 222 220 233 245 252 257 284 237 291 159 207 276 288 262 276 292 285 101 274 192 178 185 196 159 213 221 206 217 218 219
194 194 194 198 197 202 211 208 214 230 236 226 233 228 221 226 235 237 257 256 302 276 243 169 235 265 306 229 290 309 332 85 198 349 140 226 147 223 228 200 214 224 234
200 197 199 199 203 205 211 218 212 215 224 223 227 224 225 207 216 237 236 234 240 249 169 168 226 261 295 295 256 279 317 345 357 85 237 177 182 226 224 248 204 210 225
200 200 199 199 204 211 205 217 215 224 225 231 227 223 211 207 211 236 223 225 226 230 230 194 189 221 230 264 297 265 0 315 183 314 324 198 174 210 214 207 232 219 192
202 202 200 195 201 207 210 210 223 218 226 237 212 218 210 214 209 208 215 215 229 239 257 251 225 239 244 255 266 300 273 277 275 240 258 253 252 269 257 250 237 227 214